STARLINK-1707, 46359

Orbit data source: Space-Track

STARLINK-1707, 46359 is a payload satellite owned by SpaceX/Seattle (US) in LEO that was launched on Thu, 03 Sep 2020 UTC via an FALCON 9 launch vehicle from the Air Force Eastern Test Range (AFETR). Payload-class satellites include a variety of spacecraft equipped with specific instruments for various scientific and technological missions. These include communications satellites like Starlink; space stations such as the ISS; scientific satellites like the Hubble; Earth observation satellites from companies like Planet Labs, Umbra, and HawkEye 360; GPS; miniature CubeSats for education and research; and military/defense satellites.

Loading next visibility...
Identifier
46359, 2020-062AL
Orbit
LEO
Last TLE update
1 day ago
Origin
Manufacturer
SpaceX/Seattle
Mission
Partially operational Commercial Communications
Bus & Motor
STARLINK, Unknown motor
Mass
260 kg wet, ~248 kg dry
Launch date (UTC)
2020-09-03 (5 years ago)
Launch vehicle
FALCON 9
Launch site
Air Force Eastern Test Range (AFETR)
Object type
Payload
Rocket body
Debris
Shape & HBR
Box + 1 Pan, 8.86 m
Radar Cross Section
13.562 m², Large (>1 m²)

Expand to show TLE details & history

TLE from 1 day ago
0 STARLINK-1707
1 46359U 20062AL  25186.78691171  .00038341  00000-0  18408-2 0  9991
2 46359  53.0520 355.0213 0000448  72.9110 287.1933 15.18515129267791
Epoch: 2025-07-05T18:53Z
TLE epoch observation values (Epoch: 2025-07-05T18:53:09.171Z)
Latitude
-0.00006°
Longitude
147.71309°
Altitude
511.12 km
Speed
7.61 km/s
True Right ascension
23h 40m 05s
True Declination
0° 00' 00"
Sunlit
Object was in daylight at epoch
Visualization orbit readout
Latitude
-11.37462°
Longitude
-28.91416°
Altitude
513.251 km
Speed
7.608 km/s
Apparent Right ascension
14h 23m 11s
Apparent Declination
-63° 35' 01"
Sunlit
Object is in daylight
Visualization observer readout
Local Sidereal Time
10:35:32
Azimuth
156.139° SSE
Elevation
-22.855°
Doppler factor
1
Orbital elements
Apogee altitude
510.909 km
Perigee altitude
510.291 km
Semi-major axis
6,888.737 km
Eccentricity
0.00004
Inclination
53.052°
RAAN
355.0213°
Arg. of periapsis
72.911°
True anomaly
Unknown
Mean anomaly
287.1933°
Eccentric anomaly
Unknown
Mean motion
3.79607 °/min
Orbital period
94.84 mins
BSTAR
0.0018408
Loading maneuver chart data...
Loading SW <> Apogee altitude chart data...
Loading historical data...
Loading historical data...
Loading historical data...
Loading historical data...
Loading historical data...
Loading historical data...
Loading historical data...

STARLINK-1707 Visibility forecast

Observer location: undefined°, undefined°

Span
Click to sort rows by Start time (UTC) header in descending order
Start Az.
Max El. time (UTC)
Max El. Az.
Max El.
End time (UTC)
End Az.
5 mins2025-07-07 13:44:22.557Z236.232° WSW2025-07-07 13:46:22.557Z354.202° N44.433°2025-07-07 13:49:22.557Z47.688° ENE
5 mins2025-07-07 20:22:22.557Z308.985° NW2025-07-07 20:24:22.557Z273.094° WNW44.94°2025-07-07 20:27:22.557Z131.926° SE
|